TimeEDT,TemperatureF,Dew PointF,Humidity,Sea Level PressureIn,VisibilityMPH,Wind Direction,Wind SpeedMPH,Gust SpeedMPH,PrecipitationIn,Events,Conditions,WindDirDegrees,DateUTC
12:53 AM,54.0,37.0,53,29.81,10.0,South,8.1,-,0.00,,Overcast,190,2013-03-11 04:53:00
1:53 AM,53.1,37.9,57,29.77,10.0,South,5.8,-,0.00,Rain,Light Rain,190,2013-03-11 05:53:00
2:53 AM,54.0,39.9,59,29.74,10.0,South,10.4,-,0.00,,Overcast,180,2013-03-11 06:53:00
3:53 AM,53.1,41.0,64,29.73,10.0,South,8.1,-,N/A,,Overcast,170,2013-03-11 07:53:00
4:53 AM,53.1,43.0,69,29.70,10.0,South,15.0,23.0,0.00,,Overcast,170,2013-03-11 08:53:00
5:53 AM,53.1,44.1,71,29.70,10.0,South,12.7,27.6,N/A,,Overcast,190,2013-03-11 09:53:00
6:32 AM,51.8,44.6,76,29.69,10.0,South,13.8,-,N/A,,Overcast,180,2013-03-11 10:32:00
6:53 AM,51.1,46.0,83,29.70,10.0,South,13.8,21.9,N/A,,Overcast,180,2013-03-11 10:53:00
7:38 AM,48.2,46.4,93,29.70,6.0,South,8.1,-,0.01,Rain,Light Rain,170,2013-03-11 11:38:00
7:53 AM,48.9,46.9,93,29.70,6.0,South,12.7,-,0.01,,Overcast,170,2013-03-11 11:53:00
8:06 AM,48.2,46.4,93,29.69,9.0,South,10.4,18.4,N/A,,Overcast,180,2013-03-11 12:06:00
8:53 AM,48.0,46.9,96,29.71,4.0,South,9.2,-,0.00,Rain,Light Rain,170,2013-03-11 12:53:00
9:17 AM,48.2,46.4,93,29.69,2.5,SSE,8.1,-,0.01,Rain,Light Rain,150,2013-03-11 13:17:00
9:48 AM,48.2,46.4,93,29.69,4.0,South,5.8,-,0.01,,Overcast,170,2013-03-11 13:48:00
9:53 AM,48.0,46.9,96,29.69,5.0,SSE,5.8,-,0.01,,Overcast,150,2013-03-11 13:53:00
10:04 AM,46.4,46.4,100,29.69,5.0,SSE,5.8,-,N/A,,Overcast,150,2013-03-11 14:04:00
10:40 AM,48.2,46.4,93,29.68,2.0,South,6.9,-,0.01,Rain,Rain,170,2013-03-11 14:40:00
10:53 AM,48.0,46.9,96,29.68,5.0,South,5.8,-,0.02,Rain,Light Rain,170,2013-03-11 14:53:00
11:45 AM,48.2,46.4,93,29.65,4.0,SSE,11.5,-,0.00,Rain,Light Rain,160,2013-03-11 15:45:00
11:50 AM,48.2,46.4,93,29.65,2.0,SSE,11.5,-,0.01,Rain,Rain,160,2013-03-11 15:50:00
11:53 AM,48.9,46.9,93,29.66,2.5,SSE,10.4,-,0.01,Rain,Light Rain,160,2013-03-11 15:53:00
12:13 PM,48.2,46.4,93,29.64,10.0,South,12.7,19.6,0.03,,Overcast,170,2013-03-11 16:13:00
12:39 PM,48.2,46.4,93,29.62,10.0,SSE,10.4,-,0.03,,Overcast,160,2013-03-11 16:39:00
12:53 PM,48.9,46.0,90,29.62,5.0,SSE,13.8,-,0.03,Rain,Light Rain,160,2013-03-11 16:53:00
1:30 PM,48.2,44.6,87,29.59,10.0,SSE,10.4,19.6,0.01,Rain,Light Rain,160,2013-03-11 17:30:00
1:53 PM,48.9,44.1,83,29.57,7.0,SSE,11.5,-,0.01,Rain,Light Rain,150,2013-03-11 17:53:00
2:31 PM,46.4,44.6,93,29.54,6.0,SE,9.2,-,0.02,Rain,Light Rain,140,2013-03-11 18:31:00
2:53 PM,46.9,44.1,90,29.54,4.0,SSE,9.2,-,0.05,Rain,Rain,150,2013-03-11 18:53:00
3:08 PM,46.4,44.6,93,29.52,4.0,SSE,11.5,-,0.05,Rain,Rain,150,2013-03-11 19:08:00
3:18 PM,46.4,44.6,93,29.51,3.0,SSE,11.5,-,0.08,Rain,Rain,150,2013-03-11 19:18:00
3:43 PM,46.4,46.4,100,29.49,6.0,SSE,12.7,19.6,0.11,Rain,Light Rain,160,2013-03-11 19:43:00
3:53 PM,48.0,46.0,93,29.48,8.0,SSE,11.5,18.4,0.11,Rain,Light Rain,160,2013-03-11 19:53:00
4:13 PM,48.2,46.4,93,29.46,4.0,SSE,11.5,-,0.01,Rain,Light Rain,160,2013-03-11 20:13:00
4:48 PM,48.2,46.4,93,29.47,6.0,SSE,16.1,24.2,0.03,Rain,Light Rain,160,2013-03-11 20:48:00
4:53 PM,48.0,46.0,93,29.47,5.0,South,8.1,24.2,0.04,Rain,Light Rain,190,2013-03-11 20:53:00
5:25 PM,48.2,44.6,87,29.48,10.0,WSW,12.7,21.9,0.04,Rain,Light Rain,250,2013-03-11 21:25:00
5:43 PM,46.4,44.6,93,29.49,5.0,SW,8.1,-,0.06,Rain,Rain,230,2013-03-11 21:43:00
5:53 PM,46.9,45.0,93,29.50,9.0,WSW,9.2,-,0.06,Rain,Light Rain,240,2013-03-11 21:53:00
6:21 PM,48.2,44.6,87,29.51,10.0,SW,11.5,-,0.00,,Mostly Cloudy,220,2013-03-11 22:21:00
6:48 PM,46.4,44.6,93,29.51,9.0,SW,11.5,-,0.01,Rain,Light Rain,220,2013-03-11 22:48:00
6:53 PM,46.4,42.8,87,29.51,9.0,WSW,17.3,21.9,N/A,Rain,Light Rain,240,2013-03-11 22:53:00
7:09 PM,46.4,41.0,81,29.52,10.0,WSW,13.8,23.0,0.00,,Mostly Cloudy,240,2013-03-11 23:09:00
7:38 PM,44.6,39.2,81,29.53,10.0,SW,8.1,-,0.00,,Mostly Cloudy,220,2013-03-11 23:38:00
7:53 PM,44.1,39.0,82,29.55,10.0,WSW,12.7,25.3,0.00,Rain,Light Rain,240,2013-03-11 23:53:00
8:23 PM,42.8,37.4,81,29.56,10.0,WSW,11.5,-,0.01,,Overcast,240,2013-03-12 00:23:00
8:53 PM,42.1,36.0,79,29.57,10.0,WSW,15.0,20.7,0.01,,Overcast,240,2013-03-12 00:53:00
9:08 PM,42.8,35.6,76,29.57,10.0,SW,10.4,-,N/A,,Overcast,220,2013-03-12 01:08:00
9:53 PM,39.9,34.0,79,29.60,10.0,WSW,11.5,20.7,N/A,,Overcast,240,2013-03-12 01:53:00
10:53 PM,37.9,32.0,79,29.65,10.0,SW,15.0,20.7,N/A,,Overcast,220,2013-03-12 02:53:00
11:53 PM,37.4,30.2,75,29.65,10.0,SW,15.0,23.0,N/A,,Overcast,220,2013-03-12 03:53:00